Regional Weather Roundup
Issued by NWS Sterling, VA

Home | Current Version | Previous Version | Graphics & Text | Print | Product List | Glossary On
Versions: 1 2 3 4 5 6 7 8 9 10 11 12 13 14 15 16 17 18 19 20 21 22 23 24 25 26 27 28 29 30 31 32 33 34 35 36 37 38 39 40 41 42 43 44 45 46 47 48 49 50
000
ASUS41 KLWX 010710
RWRLWX

REGIONAL WEATHER ROUNDUP
NATIONAL WEATHER SERVICE BALTIMORE MD/WASHINGTON DC
300 AM EDT SAT AUG 01 2015

Note: "FAIR" indicates few or no clouds below 12,000 feet
with no significant weather and/or obstructions to visibility.
 TC=TEMPERATURE CELSIUS

 * =Non NWS site. Station does not report precipitation (e.g. rain,
    snow, etc.), thunder, or fog.

DCZ001-MDZ009-015-VAZ040>042-051-053>054-010800-
WASHINGTON METRO

CITY           SKY/WX    TMP DP  RH WIND       PRES   REMARKS
WASHINGTON NAT PTCLDY    76  64  66 S6        29.88F
DULLES         PTCLDY    69  65  86 S5        29.89F
ANDREWS AFB    CLEAR     70  65  85 S3        29.88F
FT BELVOIR     CLEAR     66  65  95 CALM      29.89S
COLLEGE PARK*  CLEAR     68  66  94 CALM      29.87F
LEESBURG*      PTCLDY    72  64  78 SW5       29.90S
MANASSAS*      CLEAR     66  64  94 CALM      29.89F
GAITHERSBURG*  CLEAR     66  61  82 CALM      29.93S

$$

MDZ006>007-011-014-010800-
BALTIMORE METRO

CITY           SKY/WX    TMP DP  RH WIND       PRES   REMARKS
BWI AIRPORT    PTCLDY    71  63  75 CALM      29.86F
MD SCIENCE CTR   N/A     76  61  59 MISG      29.86F
MARTIN STATE   CLEAR     77  64  65 SW3       29.87S
ANNAPOLIS      CLEAR     74  64  71 VRB5      29.86F
FORT MEADE*    CLEAR     64  63  94 CALM      29.90S

$$

MDZ012-015-019>023-010800-
MARYLAND EASTERN SHORE

CITY           SKY/WX    TMP DP  RH WIND       PRES   REMARKS
OCEAN CITY     CLEAR     73  65  75 W6        29.88S
SALISBURY      CLEAR     72  67  84 CALM      29.88S
CAMBRIDGE*     CLEAR     72  68  88 CALM      29.88S
EASTON*        CLEAR     74  70  88 CALM      29.91S

$$

MDZ017>025-010800-
SOUTHERN MARYLAND

CITY           SKY/WX    TMP DP  RH WIND       PRES   REMARKS
PATUXENT RIVER CLEAR     71  65  81 SW6       29.88F
ST INIGOES     CLEAR     70  65  84 CALM      29.88F
LEONARDTOWN*   PTCLDY    72  63  73 CALM      29.90F

$$

MDZ003>005-010800-
NORTH CENTRAL MARYLAND

CITY           SKY/WX    TMP DP  RH WIND       PRES   REMARKS
FREDERICK*     CLEAR     66  64  94 SE5       29.90F
HAGERSTOWN APT MOCLDY    70  60  70 S6        29.89S
WESTMINSTER*   PTCLDY    72  61  68 SW6       29.89S

$$

MDZ501>502-010800-
WESTERN MARYLAND

CITY           SKY/WX    TMP DP  RH WIND       PRES   REMARKS
OAKLAND*       MOCLDY    64 N/A N/A SW8       30.01S
CUMBERLAND*    PTCLDY    70  61  73 CALM      29.94S

$$

VAZ025>031-010800-
SHENANDOAH VALLEY

CITY           SKY/WX    TMP DP  RH WIND       PRES   REMARKS
WINCHESTER*    CLEAR     68  61  77 SW5       29.90F
FRONT ROYAL*   FAIR      66  61  82 S8        29.91S
LURAY*         FAIR      66  63  88 CALM      29.94F
NEW MARKET*    FAIR      64  60  87 CALM      29.94S
STAUNTON*      CLEAR     64  60  87 CALM      29.98F
WAYNESBORO*    FAIR      62  58  87 CALM      29.98F

$$

WVZ021-048>050-054>055-010800-
EASTERN WEST VIRGINIA PANHANDLE

CITY           SKY/WX    TMP DP  RH WIND       PRES   REMARKS
MARTINSBURG    CLEAR     67  59  75 S6        29.89F
PETERSBURG*    MOCLDY   N/A N/A N/A CALM      29.94F

$$

VAZ036>039-050-010800-
CENTRAL FOOTHILLS

CITY           SKY/WX    TMP DP  RH WIND       PRES   REMARKS
CHARLOTTESVILL CLEAR     72  59  63 SW3       29.92F
CULPEPER*      CLEAR     63  63 100 CALM      29.91S
ORANGE*        CLEAR     68  64  88 CALM      29.93S
GORDONSVILLE*  FAIR      63  63 100 SW3       29.91S
WARRENTON*     FOG       63  63 100 CALM      29.90S VSB 1

$$

VAZ055>057-010800-
NORTH AND CENTRAL PIEDMONT

CITY           SKY/WX    TMP DP  RH WIND       PRES   REMARKS
FREDERICKSBRG* CLEAR     69  69  97 CALM      29.89S
STAFFORD*      CLEAR     64  62  95 CALM      29.94S

$$

NCZ024-NYZ072-PAZ021-071-VAZ022-071-010800-
OTHER REGIONAL OBSERVATIONS

CITY           SKY/WX    TMP DP  RH WIND       PRES   REMARKS
NEW YORK CITY  PTCLDY    79  57  46 VRB3      29.83F
PHILADELPHIA   PTCLDY    76  65  68 SW9       29.84F
PITTSBURGH     MOCLDY    70  59  68 W3        29.91S
ROANOKE        CLEAR     68  58  70 NW3       30.01S
RICHMOND       PTCLDY    72  62  71 CALM      29.90F
RALEIGH        PTCLDY    69  65  86 CALM      29.94S

$$

ANZ530>537-010800-
MARINE OBSERVATIONS

STATION/POSITION TIME  TEMP    WIND        PRES
                       AIR SEA DIR/SP/G
                 (UTC) (F)     (DEG/KT/KT) (MB)
THOMAS PT LIGHT  NOT AVBL
BALT KEY BRIDGE  0600   77     220/ 10/ 11 1011.0F
COVE POINT       0600   77     260/ 10/ 13 1012.7F
LEWISETTA        0600   76 84  250/  5/  6 1011.9F
SOLOMONS ISLAND  0600      83                N/A
PINEY POINT      0600          250/  5/  7   N/A

$$



USA.gov is the U.S. government's official web portal to all federal, state and local government web resources and services.